[[{"header":{"parameterUnit":"m.s-1","parameterCategory":1,"la1":30.2991,"la2":30.254,"lo1":-89.0895,"lo2":-89.0444,"dy":0.0017,"dx":0.0017,"nx":28,"ny":28,"refTime":"2023-08-18T21:00:00:Z","depth":0,"parameterNumber":2,"parameterNumberName":"U-component_of_WINDS"},"data":[0,0,0,0,0,0,0,0,0,0,0,0,0,0,0,0,0,0,0,0,0,0,0,0,0,0,0,0,0,0,0,0,0,0,0,0,0,0,0,0,0,0,0,0,0,0,0,0,0,0,0,0,0,0,0,0,0,0,1.7715,1.7716,0,1.7805,1.7806,1.7807,1.7774,1.7772,1.777,1.7768,1.7862,1.7867,1.7871,0,0,0,0,0,0,0,0,0,0,0,0,0,1.7515,1.7518,1.7715,1.7716,1.7717,1.7805,1.7806,1.7807,1.7774,1.7772,1.7769,1.7767,1.7861,1.7866,1.7871,0,0,0,0,0,0,0,0,0,0,0,0,0,1.7603,1.752,1.7715,1.7711,1.7712,1.7805,1.7806,1.7808,1.7775,1.7772,1.7768,1.7766,1.7859,1.7866,1.7872,1.7975,0,0,1.7893,1.7895,0,0,0,0,0,0,0,0,1.7598,1.761,1.771,1.7711,1.7712,1.7775,1.777,1.7864,1.7775,1.7751,1.7768,1.7764,1.7836,1.7844,1.7868,1.7979,1.7983,1.7893,1.7897,1.79,1.7902,0,0,0,0,0,0,0,1.7592,1.7606,1.7751,1.7712,1.7713,1.7705,1.7714,1.7788,1.781,1.7753,1.775,1.7762,1.7836,1.7862,1.787,1.7985,1.7893,1.7899,1.7903,1.7906,1.8183,1.8186,0,0,0,0,0,0,1.7585,1.7601,1.7748,1.7753,1.7646,1.7711,1.7721,1.7758,1.7809,1.7813,1.7764,1.776,1.7852,1.7862,1.7873,1.7995,1.79,1.7906,1.791,1.818,1.8184,1.8187,0,0,0,0,0,0,1.7581,1.7599,1.7744,1.7677,1.7695,1.7718,1.7759,1.7761,1.7787,1.7817,1.7821,1.7786,1.785,1.7864,1.7949,1.7998,1.7909,1.7915,1.8176,1.8181,1.8186,1.8241,0,0,0,0,0,0,1.7575,1.7597,1.7636,1.7678,1.7698,1.7818,1.7762,1.7765,1.7798,1.7794,1.7839,1.7844,1.7849,1.794,1.7956,1.8006,1.792,1.8171,1.8178,1.8184,1.8235,1.8247,1.8258,0,0,0,0,0,1.7568,1.7649,1.7639,1.7656,1.7748,1.7821,1.7833,1.7836,1.7803,1.7842,1.7861,1.7842,1.799,1.7949,1.7967,1.8019,1.8168,1.8176,1.8183,1.823,1.8245,1.8258,0,0,0,0,0,0,1.7614,1.7655,1.7643,1.774,1.7777,1.7815,1.7865,1.7852,1.7901,1.7894,1.7897,1.7907,1.7995,1.8016,1.7968,1.812,1.8074,1.8086,1.8103,1.8118,1.8129,1.8122,1.7926,0,0,0,0,0,1.7635,1.7691,1.7724,1.7806,1.7825,1.7842,1.7874,1.7873,1.7912,1.7928,1.7954,1.7993,1.8048,1.8084,1.8137,1.8238,1.8247,1.8283,1.8295,1.8304,1.8314,1.8367,1.8383,1.8212,1.8212,1.8212,0,0,1.768,1.7709,1.7744,1.7816,1.7845,1.7902,1.7856,1.7919,1.7962,1.7938,1.802,1.804,1.8084,1.8177,1.8219,1.8197,1.8363,1.8314,1.8321,1.8326,1.8377,1.8393,1.8407,1.8217,1.8217,1.8216,0,0,1.779,1.7818,1.7889,1.7918,1.7962,1.7973,1.799,1.803,1.8042,1.8123,1.8106,1.8157,1.8253,1.8284,1.8313,1.8433,1.8418,1.8451,1.8511,1.8563,1.8576,1.8588,1.863,1.8645,1.846,1.8461,1.8461,0,1.784,1.7926,1.7927,1.7991,1.8023,1.8003,1.8074,1.8103,1.8162,1.8185,1.8159,1.8277,1.8305,1.8404,1.8433,1.8458,1.8477,1.8445,1.8574,1.8586,1.8597,1.8637,1.8653,1.8464,1.8464,1.8463,1.8463,0,1.7984,1.8044,1.8096,1.8152,1.819,1.8258,1.8269,1.8307,1.8302,1.8316,1.8398,1.8432,1.8489,1.8513,1.851,1.8612,1.8597,1.8573,1.8526,1.8617,1.8655,1.867,1.8469,1.8468,1.8467,1.8466,0,0,1.8126,1.8181,1.82,1.8224,1.8271,1.8317,1.8384,1.8439,1.8471,1.8513,1.8568,1.8649,1.8626,1.8658,1.8659,1.8705,1.8796,1.8675,1.8676,1.8695,1.8909,1.8926,1.8944,1.8786,1.8789,1.8792,1.8905,0,1.8238,1.8354,1.8357,1.8463,1.8518,1.8499,1.8557,1.8592,1.8606,1.8654,1.867,1.8727,1.8693,1.8712,1.8757,1.8776,1.8839,1.8768,1.8837,1.884,1.8826,1.8963,1.8982,1.9087,1.892,1.8922,1.8924,0,1.8386,1.843,1.8541,1.8578,1.8602,1.8653,1.8704,1.8751,1.879,1.8797,1.8832,1.8825,1.8893,1.8845,1.8938,1.8889,1.8918,1.8931,1.8935,1.8941,1.8887,1.8972,1.9121,1.9136,1.8947,1.8945,1.8944,0,1.8475,1.8564,1.8641,1.8663,1.8709,1.8745,1.8766,1.8802,1.8835,1.8879,1.8901,1.8953,1.8981,1.9022,1.9029,1.8994,1.9122,1.9075,1.9129,1.9129,1.9156,1.9154,1.9311,1.9177,1.9177,1.9177,1.9176,0,1.86,1.8669,1.8682,1.873,1.8806,1.8808,1.8883,1.8901,1.8933,1.8984,1.8972,1.902,1.9027,1.9077,1.9083,1.9158,1.9172,1.9179,1.9179,1.9179,1.9178,1.9197,1.919,1.9181,1.918,1.9179,1.9178,0,1.8714,1.8725,1.8808,1.8844,1.8855,1.8909,1.894,1.8986,1.8998,1.9062,1.9077,1.9097,1.9155,1.9166,1.9235,1.9239,1.9328,1.9323,1.9315,1.9314,1.9367,1.9361,1.9541,1.9564,1.9416,1.9417,1.9418,0,1.8792,1.8844,1.8885,1.8918,1.894,1.8993,1.9026,1.903,1.9065,1.9113,1.9152,1.9209,1.9254,1.9347,1.9367,1.942,1.9414,1.9473,1.9422,1.942,1.9413,1.941,1.9414,1.9483,1.9484,1.9486,1.9487,0,1.8929,1.8932,1.898,1.903,1.9069,1.9109,1.9146,1.9174,1.9183,1.9223,1.9281,1.9316,1.9385,1.9441,1.9493,1.9515,1.9502,1.9503,1.9518,1.9518,1.9511,1.9514,1.934,1.9499,1.9497,1.9497,1.9496,1.9495,1.9027,1.9071,1.9107,1.916,1.9189,1.9224,1.9268,1.9285,1.9333,1.9389,1.9389,1.9453,1.9489,1.9557,1.9582,1.9632,1.9613,1.9636,1.9641,1.9646,1.965,1.9503,1.9642,1.9641,1.9641,1.9641,1.9641,0,1.9162,1.9184,1.9233,1.9285,1.9327,1.9311,1.9351,1.9387,1.9443,1.9478,1.9522,1.9588,1.9642,1.9667,1.9719,1.9755,1.975,1.9768,1.9765,1.977,1.9665,1.9646,1.9771,1.9771,1.9771,1.9771,1.9771,1.9771,1.9237,1.9311,1.9318,1.9407,1.9428,1.9489,1.9514,1.9546,1.9573,1.9648,1.9692,1.9707,1.9738,1.9792,1.9841,1.9847,1.9866,1.9887,1.989,1.9791,1.9778,1.9765,1.9747,1.9891,1.9891,1.9991,1.9992,1.9992]},{"header":{"parameterUnit":"m.s-1","parameterCategory":1,"la1":30.2991,"la2":30.254,"lo1":-89.0895,"lo2":-89.0444,"dy":0.0017,"dx":0.0017,"nx":28,"ny":28,"refTime":"2023-08-18T21:00:00:Z","depth":0,"parameterNumber":3,"parameterNumberName":"V-component_of_WINDS"},"data":[0,0,0,0,0,0,0,0,0,0,0,0,0,0,0,0,0,0,0,0,0,0,0,0,0,0,0,0,0,0,0,0,0,0,0,0,0,0,0,0,0,0,0,0,0,0,0,0,0,0,0,0,0,0,0,0,0,0,4.4808,4.4808,0,4.4811,4.4811,4.4811,4.4715,4.4712,4.471,4.4707,4.4709,4.4711,4.4714,0,0,0,0,0,0,0,0,0,0,0,0,0,4.4718,4.472,4.4808,4.4808,4.4808,4.4811,4.4811,4.4811,4.4715,4.4712,4.4709,4.4706,4.4708,4.4711,4.4714,0,0,0,0,0,0,0,0,0,0,0,0,0,4.4742,4.4721,4.4808,4.4761,4.4756,4.4811,4.4811,4.4811,4.4716,4.4712,4.4708,4.4705,4.4707,4.4711,4.4714,4.4813,0,0,4.4725,4.4727,0,0,0,0,0,0,0,0,4.4741,4.4746,4.4768,4.4764,4.4759,4.4759,4.4779,4.4812,4.4717,4.4731,4.4707,4.4703,4.4728,4.473,4.4739,4.4813,4.4813,4.4726,4.4728,4.4729,4.473,0,0,0,0,0,0,0,4.4739,4.4745,4.4809,4.4768,4.4763,4.4739,4.4738,4.4785,4.4751,4.473,4.4723,4.4725,4.4725,4.4736,4.4738,4.4813,4.4725,4.4729,4.4731,4.4732,4.4968,4.4972,0,0,0,0,0,0,4.4744,4.4744,4.4809,4.4809,4.4741,4.4743,4.4743,4.4763,4.475,4.4745,4.4728,4.472,4.4731,4.4734,4.4738,4.4852,4.4729,4.4733,4.4735,4.4964,4.4969,4.4973,0,0,0,0,0,0,4.4743,4.4751,4.4809,4.4775,4.478,4.4749,4.4772,4.4765,4.4775,4.4749,4.4742,4.4745,4.4728,4.4733,4.4795,4.4851,4.4734,4.4738,4.4959,4.4966,4.4971,4.5082,0,0,0,0,0,0,4.4741,4.4751,4.4789,4.4776,4.4782,4.4867,4.4776,4.4768,4.4782,4.4771,4.4763,4.4758,4.4726,4.479,4.4799,4.4854,4.474,4.4954,4.4962,4.4969,4.5073,4.5091,4.5107,0,0,0,0,0,4.4738,4.482,4.4791,4.48,4.4829,4.487,4.4873,4.4835,4.4787,4.4824,4.4807,4.4758,4.4844,4.4797,4.4806,4.4863,4.495,4.496,4.4969,4.5066,4.5088,4.5106,0,0,0,0,0,0,4.4839,4.4817,4.4785,4.4866,4.4871,4.4854,4.49,4.486,4.4878,4.4868,4.4819,4.4818,4.4888,4.4882,4.483,4.4958,4.4888,4.49,4.4959,4.498,4.4996,4.4996,4.4744,0,0,0,0,0,4.4871,4.4907,4.4886,4.4959,4.4963,4.4931,4.4948,4.4918,4.492,4.4922,4.4909,4.4914,4.4941,4.496,4.4984,4.5072,4.5069,4.5116,4.5133,4.5146,4.5156,4.5202,4.5222,4.5004,4.5004,4.5003,0,0,4.4937,4.493,4.4955,4.4979,4.4979,4.5016,4.4933,4.4977,4.5003,4.4928,4.4986,4.4977,4.4978,4.5054,4.5087,4.5051,4.5216,4.5158,4.5169,4.5172,4.5213,4.5234,4.5252,4.501,4.5009,4.5008,0,0,4.5076,4.5075,4.5135,4.5137,4.5138,4.5117,4.5131,4.5121,4.5112,4.517,4.5114,4.5145,4.5194,4.5196,4.5204,4.5345,4.53,4.5354,4.5441,4.5485,4.5503,4.5518,4.5567,4.5585,4.5364,4.5365,4.5365,0,4.5158,4.5212,4.5171,4.5218,4.5229,4.5164,4.5224,4.5227,4.5237,4.5246,4.5206,4.5266,4.5262,4.5337,4.5371,4.538,4.5394,4.5354,4.5504,4.5518,4.5532,4.5578,4.5597,4.5371,4.537,4.537,4.5369,0,4.5312,4.5351,4.5399,4.541,4.5427,4.5481,4.5447,4.5469,4.5438,4.5421,4.548,4.5473,4.5494,4.551,4.548,4.5581,4.5558,4.5512,4.5441,4.556,4.5602,4.562,4.538,4.5378,4.5376,4.5375,0,0,4.5514,4.5502,4.552,4.5524,4.5521,4.5549,4.56,4.5621,4.564,4.5649,4.5689,4.5732,4.5689,4.5698,4.5668,4.5708,4.5818,4.5656,4.5655,4.5686,4.5928,4.5962,4.5983,4.5789,4.5792,4.5795,4.5927,0,4.5648,4.5734,4.5698,4.5786,4.5821,4.5759,4.5802,4.5805,4.579,4.5817,4.58,4.5831,4.5772,4.5777,4.5814,4.5797,4.5866,4.5787,4.5825,4.5827,4.5826,4.6005,4.6042,4.6167,4.5944,4.5947,4.5949,0,4.5816,4.5832,4.5924,4.5914,4.5927,4.5967,4.5983,4.601,4.6011,4.5997,4.6008,4.5969,4.6016,4.5947,4.6012,4.5959,4.5972,4.5967,4.5971,4.5972,4.5894,4.601,4.6206,4.6224,4.5975,4.5973,4.5971,0,4.5953,4.5997,4.6058,4.6063,4.6053,4.6083,4.608,4.6077,4.6092,4.6106,4.6115,4.6135,4.6146,4.6162,4.6129,4.6081,4.6198,4.6125,4.6187,4.6188,4.6213,4.6212,4.6413,4.6224,4.6224,4.6224,4.6223,0,4.6106,4.6164,4.6119,4.6156,4.622,4.6178,4.6241,4.6232,4.623,4.6264,4.6212,4.6244,4.6199,4.6227,4.6202,4.6259,4.6265,4.6254,4.6247,4.6258,4.626,4.6266,4.6256,4.6229,4.6228,4.6227,4.6226,0,4.6269,4.6241,4.6303,4.6289,4.6287,4.6334,4.6321,4.6355,4.6336,4.638,4.6387,4.6359,4.6389,4.6358,4.6387,4.6369,4.6446,4.6426,4.6445,4.6439,4.6502,4.6497,4.6713,4.6739,4.6535,4.6537,4.6539,0,4.6368,4.6411,4.6402,4.6421,4.6421,4.6453,4.6468,4.6428,4.6446,4.645,4.6483,4.6509,4.6528,4.658,4.6561,4.6582,4.6562,4.6636,4.6565,4.6575,4.6562,4.6559,4.6563,4.6651,4.6653,4.6655,4.6657,0,4.6546,4.653,4.6553,4.6573,4.6592,4.6605,4.6614,4.6633,4.6592,4.6614,4.6645,4.6659,4.6688,4.6715,4.6731,4.6727,4.6685,4.668,4.6695,4.6707,4.6716,4.6711,4.6484,4.6674,4.6673,4.6671,4.667,4.667,4.6679,4.6714,4.6713,4.6741,4.6744,4.6754,4.6784,4.677,4.6795,4.6815,4.6791,4.6828,4.6828,4.6845,4.6846,4.6875,4.6843,4.6865,4.6871,4.6877,4.6886,4.6712,4.6878,4.6877,4.6877,4.6876,4.6876,0,4.6853,4.6849,4.6875,4.689,4.6912,4.6871,4.6879,4.69,4.6934,4.6937,4.6957,4.6992,4.7017,4.7001,4.7022,4.7048,4.703,4.7055,4.7052,4.7052,4.6913,4.6897,4.707,4.707,4.707,4.707,4.707,4.707,4.6946,4.7004,4.6988,4.7046,4.7041,4.7078,4.7086,4.7094,4.7097,4.7138,4.7159,4.7149,4.7144,4.7165,4.7186,4.7181,4.719,4.7223,4.7211,4.7081,4.7062,4.7044,4.7028,4.7226,4.7226,4.7347,4.7348,4.7349]}]]